NORTHERN NASSAU  -  Areal Flood Advisory Areal Flood Advisory     Flash Flood Watch Flash Flood Watch     Rip Current Statement Rip Current Statement        NORTHERN QUEENS  -  Areal Flood Advisory Areal Flood Advisory     Flash Flood Watch Flash Flood Watch     Rip Current Statement Rip Current Statement        SOUTHERN NASSAU  -  Areal Flood Advisory Areal Flood Advisory     Flash Flood Watch Flash Flood Watch     Rip Current Statement Rip Current Statement        SOUTHERN QUEENS  -  Areal Flood Advisory Areal Flood Advisory     Flash Flood Watch Flash Flood Watch     Rip Current Statement Rip Current Statement        NORTHEAST SUFFOLK  -  Rip Current Statement Rip Current Statement        NORTHWEST SUFFOLK  -  Rip Current Statement Rip Current Statement        SOUTHEAST SUFFOLK  -  Rip Current Statement Rip Current Statement        SOUTHWEST SUFFOLK  -  Rip Current Statement Rip Current Statement      

Active alerts

Northern Queens
  Details for Northern Queens Areal Flood Advisory  +2 additional alerts
Southern Queens
  Details for Southern Queens Areal Flood Advisory  +2 additional alerts
Northern Nassau
  Details for Northern Nassau Areal Flood Advisory  +2 additional alerts
Southern Nassau
  Details for Southern Nassau Areal Flood Advisory  +2 additional alerts
Northwest Suffolk
  Details for Northwest Suffolk Rip Current Statement
Southwest Suffolk
  Details for Southwest Suffolk Rip Current Statement
Northeast Suffolk
  Details for Northeast Suffolk Rip Current Statement
Southeast Suffolk
  Details for Southeast Suffolk Rip Current Statement


WXM80 ListenWXM80 Stop

You find our weather info also at:

UK Metoffice

WeatherCloud

Weather Underground

Northeastern Weather Network

AWEKAS

Citizen Weather Observer Program (CWOP)

HAMweather, WeatherForYou, PWS Weather


Weather Underground History page Text

Daily Summary for July 31, 2017 Units:  English    Metric   Both
« Previous Day
Next Day »
Daily Weekly Monthly Yearly Custom
  High: Low: Average:
Temperature: 91.6 °F 62.1 °F 76.2 °F
Dew Point: 67.1 °F 56.2 °F 62.4 °F
Humidity: 85 % 40 % 65 %
Wind Speed: 3.1 mph 0.0 mph 0.7 mph
Wind Gust: 8.1 mph - -
Wind:- - SSW
Pressure: 30.03 in 29.95 in -
Precipitation: 0.00 in    
Historical Graphs
 
 
Tabular Data for July 31, 2017
Time Temperature Dew Point Pressure Wind Wind Speed Wind Gust Humidity Rainfall Rate (Hourly)
00:02 67.1 °F 58.5 °F 30.01 in Calm     74 % 0.00 in
00:07 67.1 °F 58.5 °F 30.01 in WSW 1.6 mph 3.5 mph 74 % 0.00 in
00:13 67.1 °F 58.5 °F 30.01 in WSW 0.5 mph 3.0 mph 74 % 0.00 in
00:18 67.1 °F 58.5 °F 30.01 in SW 0.6 mph 2.3 mph 74 % 0.00 in
00:23 67.0 °F 58.4 °F 30.01 in WSW 0.8 mph 3.5 mph 74 % 0.00 in
00:28 67.1 °F 58.9 °F 30.01 in SW 1.3 mph 3.5 mph 75 % 0.00 in
00:33 67.0 °F 58.8 °F 30.01 in SW 0.3 mph 2.3 mph 75 % 0.00 in
00:38 67.0 °F 59.2 °F 30.01 in WSW 0.6 mph 2.3 mph 76 % 0.00 in
00:43 67.0 °F 59.2 °F 30.01 in WSW 0.1 mph 1.0 mph 76 % 0.00 in
00:48 67.0 °F 59.2 °F 30.01 in WSW 0.6 mph 2.3 mph 76 % 0.00 in
00:53 67.0 °F 59.2 °F 30.01 in WSW 0.4 mph 1.2 mph 76 % 0.00 in
00:58 67.0 °F 59.2 °F 30.01 in WSW 0.3 mph 3.5 mph 76 % 0.00 in
01:03 67.0 °F 59.5 °F 30.01 in West 1.8 mph 4.0 mph 77 % 0.00 in
01:08 67.0 °F 59.5 °F 30.01 in WSW 1.3 mph 4.6 mph 77 % 0.00 in
01:13 67.0 °F 59.5 °F 30.01 in SW 1.6 mph 3.5 mph 77 % 0.00 in
01:18 66.9 °F 59.5 °F 30.01 in WSW 1.5 mph 4.6 mph 77 % 0.00 in
01:23 66.9 °F 59.5 °F 30.01 in WSW 0.4 mph 2.3 mph 77 % 0.00 in
01:28 66.9 °F 59.5 °F 30.01 in Calm   1.2 mph 77 % 0.00 in
01:33 66.8 °F 59.4 °F 30.01 in Calm   2.3 mph 77 % 0.00 in
01:38 66.8 °F 59.4 °F 30.01 in WSW 0.7 mph 3.5 mph 77 % 0.00 in
01:44 66.7 °F 59.6 °F 30.00 in WSW 0.3 mph 3.5 mph 78 % 0.00 in
01:48 66.6 °F 59.5 °F 30.00 in WSW 0.3 mph 3.5 mph 78 % 0.00 in
01:54 66.5 °F 59.1 °F 30.00 in WSW 0.1 mph 2.3 mph 77 % 0.00 in
01:58 66.4 °F 59.3 °F 30.00 in WSW 0.2 mph 1.2 mph 78 % 0.00 in
02:04 66.3 °F 59.2 °F 30.00 in WSW 0.4 mph 3.5 mph 78 % 0.00 in
02:09 66.2 °F 59.1 °F 30.00 in WSW 1.9 mph 3.5 mph 78 % 0.00 in
02:14 66.1 °F 59.0 °F 30.00 in WSW 1.3 mph 4.6 mph 78 % 0.00 in
02:19 66.0 °F 58.9 °F 30.00 in WSW 1.1 mph 2.3 mph 78 % 0.00 in
02:24 65.9 °F 58.8 °F 30.00 in SW 0.1 mph 1.2 mph 78 % 0.00 in
02:29 65.9 °F 58.8 °F 30.00 in SW 1.4 mph 3.5 mph 78 % 0.00 in
02:34 65.8 °F 58.7 °F 30.00 in SW 1.4 mph 2.3 mph 78 % 0.00 in
02:39 65.7 °F 58.7 °F 30.00 in Calm   1.2 mph 78 % 0.00 in
02:44 65.7 °F 58.7 °F 30.00 in WSW 0.7 mph 5.0 mph 78 % 0.00 in
02:49 65.6 °F 58.6 °F 30.00 in SW 1.8 mph 3.5 mph 78 % 0.00 in
02:54 65.4 °F 58.4 °F 30.00 in WSW 1.9 mph 3.5 mph 78 % 0.00 in
02:59 65.4 °F 58.4 °F 30.01 in WSW 1.6 mph 3.5 mph 78 % 0.00 in
03:04 65.3 °F 58.3 °F 30.01 in Calm   1.2 mph 78 % 0.00 in
03:09 65.3 °F 58.3 °F 30.01 in Calm   1.2 mph 78 % 0.00 in
03:14 65.2 °F 58.2 °F 30.00 in WSW 1.5 mph 3.5 mph 78 % 0.00 in
03:19 65.2 °F 58.2 °F 30.00 in WSW 1.4 mph 2.3 mph 78 % 0.00 in
03:24 65.1 °F 57.7 °F 30.00 in SW 1.6 mph 3.5 mph 77 % 0.00 in
03:25 65.1 °F 57.7 °F 30.00 in SW 0.8 mph 3.5 mph 77 % 0.00 in
03:30 65.0 °F 57.6 °F 30.00 in WSW 1.2 mph 2.0 mph 77 % 0.00 in
03:35 65.0 °F 57.6 °F 30.00 in WSW 1.3 mph 3.0 mph 77 % 0.00 in
03:40 65.0 °F 57.6 °F 30.00 in WSW 0.3 mph 2.3 mph 77 % 0.00 in
03:45 64.9 °F 57.5 °F 30.00 in Calm     77 % 0.00 in
03:50 64.9 °F 57.2 °F 30.00 in WSW 0.1 mph   76 % 0.00 in
03:55 64.8 °F 57.1 °F 30.00 in WSW 1.0 mph 3.5 mph 76 % 0.00 in
04:00 64.8 °F 57.1 °F 30.00 in WSW 0.4 mph 2.3 mph 76 % 0.00 in
04:05 64.7 °F 57.0 °F 30.00 in WSW 0.7 mph 2.3 mph 76 % 0.00 in
04:10 64.6 °F 57.2 °F 30.00 in Calm   1.2 mph 77 % 0.00 in
04:15 64.6 °F 57.2 °F 30.00 in SW 1.8 mph 4.0 mph 77 % 0.00 in
04:20 64.5 °F 56.8 °F 30.00 in West 2.2 mph 2.3 mph 76 % 0.00 in
04:26 64.4 °F 56.7 °F 30.00 in Calm   4.0 mph 76 % 0.00 in
04:31 64.3 °F 56.6 °F 30.00 in SW 0.2 mph 1.2 mph 76 % 0.00 in
04:36 64.3 °F 56.6 °F 30.00 in Calm   1.0 mph 76 % 0.00 in
04:41 64.2 °F 56.8 °F 30.00 in Calm   2.0 mph 77 % 0.00 in
04:46 64.1 °F 56.7 °F 30.00 in Calm   1.0 mph 77 % 0.00 in
04:51 64.0 °F 56.6 °F 30.00 in Calm   2.0 mph 77 % 0.00 in
04:56 63.9 °F 56.5 °F 30.00 in SW 1.0 mph 3.0 mph 77 % 0.00 in
05:01 63.7 °F 56.4 °F 30.00 in SW 0.5 mph 2.3 mph 77 % 0.00 in
05:06 63.6 °F 56.6 °F 30.00 in SW 0.3 mph 3.0 mph 78 % 0.00 in
05:11 63.5 °F 56.5 °F 30.01 in SW 0.1 mph 2.0 mph 78 % 0.00 in
05:16 63.3 °F 56.3 °F 30.00 in Calm     78 % 0.00 in
05:21 63.2 °F 56.6 °F 30.00 in SW 0.1 mph 1.2 mph 79 % 0.00 in
05:26 63.1 °F 56.5 °F 30.00 in Calm   1.0 mph 79 % 0.00 in
05:31 63.0 °F 56.4 °F 30.01 in SW 0.1 mph 1.2 mph 79 % 0.00 in
05:36 62.9 °F 56.3 °F 30.01 in Calm     79 % 0.00 in
05:41 62.8 °F 56.2 °F 30.01 in SW 0.1 mph 1.2 mph 79 % 0.00 in
05:46 62.7 °F 56.4 °F 30.01 in Calm     80 % 0.00 in
05:51 62.7 °F 56.4 °F 30.01 in SW 0.1 mph 1.0 mph 80 % 0.00 in
05:56 62.6 °F 56.3 °F 30.01 in Calm   1.2 mph 80 % 0.00 in
06:01 62.4 °F 56.5 °F 30.01 in SSE 0.1 mph 1.2 mph 81 % 0.00 in
06:06 62.3 °F 56.4 °F 30.01 in SSE 0.6 mph 2.3 mph 81 % 0.00 in
06:11 62.2 °F 56.3 °F 30.01 in SSE 0.7 mph 3.5 mph 81 % 0.00 in
06:16 62.1 °F 56.5 °F 30.01 in WSW 0.4 mph 2.3 mph 82 % 0.00 in
06:21 62.1 °F 56.5 °F 30.02 in SW 0.6 mph 2.0 mph 82 % 0.00 in
06:26 62.1 °F 56.5 °F 30.01 in Calm   1.2 mph 82 % 0.00 in
06:31 62.2 °F 57.0 °F 30.02 in Calm     83 % 0.00 in
06:36 62.3 °F 57.1 °F 30.02 in Calm   1.2 mph 83 % 0.00 in
06:42 62.5 °F 57.6 °F 30.02 in Calm     84 % 0.00 in
06:47 62.7 °F 58.1 °F 30.02 in Calm     85 % 0.00 in
06:52 63.0 °F 58.4 °F 30.02 in Calm     85 % 0.00 in
06:57 63.3 °F 58.7 °F 30.02 in Calm     85 % 0.00 in
07:02 63.7 °F 58.8 °F 30.02 in Calm     84 % 0.00 in
07:07 64.1 °F 59.5 °F 30.02 in Calm     85 % 0.00 in
07:12 64.6 °F 59.7 °F 30.02 in Calm     84 % 0.00 in
07:17 65.2 °F 60.6 °F 30.02 in Calm   1.2 mph 85 % 0.00 in
07:22 65.8 °F 61.2 °F 30.02 in Calm   1.2 mph 85 % 0.00 in
07:27 66.5 °F 61.5 °F 30.02 in South 0.1 mph 1.2 mph 84 % 0.00 in
07:32 67.1 °F 61.8 °F 30.02 in South 0.1 mph 2.3 mph 83 % 0.00 in
07:37 67.8 °F 62.4 °F 30.02 in Calm     83 % 0.00 in
07:42 68.2 °F 62.8 °F 30.02 in Calm     83 % 0.00 in
07:44 68.4 °F 62.7 °F 30.02 in Calm   1.2 mph 82 % 0.00 in
07:49 68.6 °F 62.9 °F 30.02 in Calm   1.2 mph 82 % 0.00 in
07:54 68.9 °F 62.8 °F 30.02 in Calm     81 % 0.00 in
07:59 69.0 °F 62.9 °F 30.02 in Calm     81 % 0.00 in
08:04 69.2 °F 62.8 °F 30.02 in West 2.4 mph 4.6 mph 80 % 0.00 in
08:09 69.2 °F 62.8 °F 30.02 in Calm   2.3 mph 80 % 0.00 in
08:14 69.3 °F 62.9 °F 30.03 in West 0.4 mph 2.3 mph 80 % 0.00 in
08:19 69.3 °F 63.2 °F 30.02 in Calm     81 % 0.00 in
08:24 69.4 °F 63.0 °F 30.02 in West 0.3 mph 3.5 mph 80 % 0.00 in
08:29 69.5 °F 63.4 °F 30.02 in WNW 1.8 mph 2.3 mph 81 % 0.00 in
08:34 69.6 °F 63.5 °F 30.02 in WNW 0.7 mph 2.3 mph 81 % 0.00 in
08:39 69.8 °F 64.1 °F 30.02 in WNW 0.8 mph 1.2 mph 82 % 0.00 in
08:44 70.0 °F 63.9 °F 30.02 in WNW 1.5 mph 3.0 mph 81 % 0.00 in
08:49 70.2 °F 64.1 °F 30.02 in Calm     81 % 0.00 in
08:54 70.3 °F 64.2 °F 30.02 in Calm     81 % 0.00 in
08:59 70.6 °F 63.8 °F 30.02 in WNW 0.9 mph 3.5 mph 79 % 0.00 in
09:04 70.8 °F 63.6 °F 30.02 in WNW 0.8 mph 1.2 mph 78 % 0.00 in
09:09 71.0 °F 63.8 °F 30.02 in ESE 0.1 mph 1.2 mph 78 % 0.00 in
09:15 71.3 °F 63.7 °F 30.02 in NE 1.1 mph 3.5 mph 77 % 0.00 in
09:20 71.5 °F 63.5 °F 30.02 in WSW 1.5 mph 1.5 mph 76 % 0.00 in
09:25 71.7 °F 63.4 °F 30.02 in WSW 0.1 mph 1.2 mph 75 % 0.00 in
09:30 72.0 °F 64.4 °F 30.02 in North 0.2 mph 1.2 mph 77 % 0.00 in
09:35 72.2 °F 64.6 °F 30.02 in WNW 0.9 mph 3.5 mph 77 % 0.00 in
09:40 72.4 °F 64.4 °F 30.02 in Calm     76 % 0.00 in
09:45 72.5 °F 64.1 °F 30.03 in WNW 0.4 mph 2.0 mph 75 % 0.00 in
09:50 72.7 °F 64.7 °F 30.02 in WNW 0.7 mph 3.5 mph 76 % 0.00 in
09:55 72.9 °F 64.1 °F 30.03 in NW 0.1 mph 3.5 mph 74 % 0.00 in
10:00 73.3 °F 65.7 °F 30.03 in NW 0.6 mph 2.3 mph 77 % 0.00 in
10:05 74.0 °F 66.0 °F 30.03 in NW 1.0 mph 3.5 mph 76 % 0.00 in
10:10 74.8 °F 66.0 °F 30.03 in NW 0.6 mph 2.3 mph 74 % 0.00 in
10:15 75.9 °F 65.4 °F 30.03 in Calm   1.2 mph 70 % 0.00 in
10:20 77.4 °F 66.0 °F 30.02 in NNW 0.4 mph 1.0 mph 68 % 0.00 in
10:25 78.7 °F 65.9 °F 30.03 in NNW 0.8 mph 2.3 mph 65 % 0.00 in
10:30 79.6 °F 63.0 °F 30.03 in NNW 0.2 mph 3.5 mph 57 % 0.00 in
10:35 80.3 °F 63.2 °F 30.03 in NW 0.9 mph 2.3 mph 56 % 0.00 in
10:40 81.0 °F 63.8 °F 30.02 in Calm   1.2 mph 56 % 0.00 in
10:45 82.0 °F 63.7 °F 30.03 in NNW 0.3 mph 2.3 mph 54 % 0.00 in
10:50 82.9 °F 64.0 °F 30.03 in North 1.0 mph 2.3 mph 53 % 0.00 in
10:55 83.7 °F 64.2 °F 30.03 in West 0.1 mph 2.3 mph 52 % 0.00 in
11:00 84.3 °F 64.8 °F 30.03 in NNW 1.0 mph 3.5 mph 52 % 0.00 in
11:06 84.8 °F 63.5 °F 30.03 in NNW 2.0 mph 5.0 mph 49 % 0.00 in
11:11 85.3 °F 65.1 °F 30.03 in ESE 1.3 mph 2.3 mph 51 % 0.00 in
11:16 85.6 °F 63.1 °F 30.03 in North 2.0 mph 5.0 mph 47 % 0.00 in
11:21 85.9 °F 63.4 °F 30.02 in North 1.0 mph 3.0 mph 47 % 0.00 in
11:26 86.3 °F 63.1 °F 30.03 in North 2.0 mph 4.0 mph 46 % 0.00 in
11:31 86.7 °F 63.4 °F 30.03 in Calm   3.0 mph 46 % 0.00 in
11:36 86.9 °F 63.6 °F 30.03 in NNW 1.0 mph 3.0 mph 46 % 0.00 in
11:41 87.1 °F 63.2 °F 30.03 in North 1.0 mph 3.0 mph 45 % 0.00 in
11:46 87.2 °F 63.9 °F 30.02 in NNE 1.0 mph 4.0 mph 46 % 0.00 in
11:51 87.4 °F 64.1 °F 30.02 in Calm   3.0 mph 46 % 0.00 in
11:55 87.4 °F 62.8 °F 30.02 in NE 1.5 mph 2.3 mph 44 % 0.00 in
12:01 87.2 °F 62.6 °F 30.03 in ENE 1.9 mph 3.5 mph 44 % 0.00 in
12:06 87.2 °F 63.9 °F 30.03 in NE 1.1 mph 3.5 mph 46 % 0.00 in
12:11 87.4 °F 64.7 °F 30.02 in Calm   2.3 mph 47 % 0.00 in
12:16 87.6 °F 63.0 °F 30.02 in NNW 1.5 mph 4.0 mph 44 % 0.00 in
12:21 87.8 °F 63.8 °F 30.02 in WNW 1.7 mph 4.0 mph 45 % 0.00 in
12:26 88.1 °F 64.1 °F 30.02 in NW 1.2 mph 3.0 mph 45 % 0.00 in
12:31 88.2 °F 64.8 °F 30.01 in North 2.4 mph 3.5 mph 46 % 0.00 in
12:36 88.4 °F 64.4 °F 30.01 in ENE 1.7 mph 4.0 mph 45 % 0.00 in
12:41 88.1 °F 65.3 °F 30.01 in NE 2.0 mph 3.5 mph 47 % 0.00 in
12:46 88.3 °F 63.6 °F 30.01 in NNE 0.3 mph 2.3 mph 44 % 0.00 in
12:51 88.6 °F 65.8 °F 30.01 in NW 0.3 mph 3.5 mph 47 % 0.00 in
12:56 88.8 °F 62.1 °F 30.01 in WNW 2.1 mph 3.5 mph 41 % 0.00 in
13:01 88.9 °F 63.5 °F 30.01 in NW 0.1 mph 2.3 mph 43 % 0.00 in
13:06 88.9 °F 64.8 °F 30.01 in NNE 1.7 mph 3.5 mph 45 % 0.00 in
13:11 89.1 °F 64.3 °F 30.01 in NNE 1.9 mph 3.5 mph 44 % 0.00 in
13:16 89.2 °F 64.4 °F 30.01 in NNE 2.6 mph 5.0 mph 44 % 0.00 in
13:21 89.2 °F 63.8 °F 30.01 in NNW 1.1 mph 3.5 mph 43 % 0.00 in
13:26 89.4 °F 64.6 °F 30.00 in NNE 2.0 mph 3.0 mph 44 % 0.00 in
13:32 89.6 °F 66.1 °F 30.00 in NNW 0.5 mph 3.0 mph 46 % 0.00 in
13:37 89.7 °F 64.9 °F 30.00 in North 1.5 mph 3.5 mph 44 % 0.00 in
13:42 90.0 °F 65.2 °F 30.00 in North 2.0 mph 4.0 mph 44 % 0.00 in
13:47 90.2 °F 65.3 °F 30.00 in North 2.3 mph 3.5 mph 44 % 0.00 in
13:52 90.4 °F 65.5 °F 29.99 in NNE 1.9 mph 3.5 mph 44 % 0.00 in
13:57 90.6 °F 64.4 °F 29.99 in WNW 2.9 mph 3.5 mph 42 % 0.00 in
14:02 90.8 °F 64.5 °F 29.99 in WNW 1.6 mph 3.5 mph 42 % 0.00 in
14:07 90.8 °F 63.9 °F 29.99 in NNW 0.6 mph 3.5 mph 41 % 0.00 in
14:12 90.9 °F 63.2 °F 29.99 in NW 1.4 mph 3.5 mph 40 % 0.00 in
14:17 90.8 °F 63.9 °F 29.98 in WNW 1.3 mph 3.0 mph 41 % 0.00 in
14:22 90.6 °F 63.0 °F 29.98 in WSW 0.1 mph 1.2 mph 40 % 0.00 in
14:27 90.6 °F 65.7 °F 29.98 in NNW 2.2 mph 4.0 mph 44 % 0.00 in
14:32 90.6 °F 63.7 °F 29.98 in NNE 1.3 mph 3.5 mph 41 % 0.00 in
14:37 90.5 °F 64.3 °F 29.98 in NNE 1.0 mph 3.5 mph 42 % 0.00 in
14:42 90.4 °F 63.5 °F 29.98 in NNE 2.4 mph 3.5 mph 41 % 0.00 in
14:47 90.3 °F 64.8 °F 29.98 in North 1.4 mph 3.0 mph 43 % 0.00 in
14:53 90.4 °F 64.9 °F 29.98 in NNE 0.8 mph 2.3 mph 43 % 0.00 in
14:58 90.5 °F 64.9 °F 29.98 in North 0.3 mph 2.0 mph 43 % 0.00 in
15:03 90.7 °F 65.1 °F 29.98 in NNW 1.3 mph 3.5 mph 43 % 0.00 in
15:08 90.7 °F 66.4 °F 29.97 in WNW 0.1 mph 2.0 mph 45 % 0.00 in
15:13 90.8 °F 65.2 °F 29.97 in West 0.2 mph 1.2 mph 43 % 0.00 in
15:18 91.0 °F 64.0 °F 29.97 in WSW 1.9 mph 3.5 mph 41 % 0.00 in
15:23 91.1 °F 65.5 °F 29.96 in South 0.5 mph 1.2 mph 43 % 0.00 in
15:28 91.1 °F 64.8 °F 29.96 in South 1.7 mph 3.5 mph 42 % 0.00 in
15:33 91.2 °F 64.2 °F 29.96 in NE 0.2 mph 1.2 mph 41 % 0.00 in
15:38 91.3 °F 65.0 °F 29.96 in West 1.1 mph 2.3 mph 42 % 0.00 in
15:43 91.5 °F 64.5 °F 29.96 in West 3.0 mph 3.5 mph 41 % 0.00 in
15:48 91.6 °F 65.3 °F 29.96 in NNE 2.2 mph 3.5 mph 42 % 0.00 in
15:53 91.4 °F 65.8 °F 29.96 in NW 1.9 mph 2.3 mph 43 % 0.00 in
15:58 91.3 °F 65.0 °F 29.95 in NE 0.9 mph 3.5 mph 42 % 0.00 in
16:03 91.3 °F 65.7 °F 29.96 in NNE 1.2 mph 3.5 mph 43 % 0.00 in
16:04 91.3 °F 66.3 °F 29.95 in NNE 0.8 mph 2.3 mph 44 % 0.00 in
16:09 91.4 °F 67.1 °F 29.96 in Calm     45 % 0.00 in
16:14 91.3 °F 65.7 °F 29.96 in North 0.1 mph 1.2 mph 43 % 0.00 in
16:19 91.1 °F 65.5 °F 29.96 in NNE 0.7 mph 2.3 mph 43 % 0.00 in
16:24 90.9 °F 66.6 °F 29.96 in NNE 0.7 mph 2.3 mph 45 % 0.00 in
16:29 90.8 °F 65.9 °F 29.95 in NNE 0.5 mph 2.3 mph 44 % 0.00 in
16:34 90.6 °F 64.4 °F 29.95 in NE 0.6 mph 2.3 mph 42 % 0.00 in
16:39 90.5 °F 64.9 °F 29.95 in NNE 0.7 mph 3.5 mph 43 % 0.00 in
16:44 90.4 °F 65.5 °F 29.95 in Calm     44 % 0.00 in
16:49 90.4 °F 64.9 °F 29.95 in Calm     43 % 0.00 in
16:54 90.2 °F 65.3 °F 29.95 in Calm   1.2 mph 44 % 0.00 in
16:59 90.1 °F 65.2 °F 29.95 in NNE 0.7 mph 1.2 mph 44 % 0.00 in
17:04 90.0 °F 66.4 °F 29.95 in Calm   1.2 mph 46 % 0.00 in
17:09 89.9 °F 65.7 °F 29.95 in North 0.9 mph 3.5 mph 45 % 0.00 in
17:14 89.8 °F 66.3 °F 29.95 in North 1.0 mph 3.0 mph 46 % 0.00 in
17:19 89.6 °F 66.1 °F 29.96 in North 0.7 mph 3.5 mph 46 % 0.00 in
17:24 89.2 °F 65.7 °F 29.96 in ESE 1.1 mph 3.5 mph 46 % 0.00 in
17:29 88.7 °F 65.9 °F 29.95 in Calm   2.3 mph 47 % 0.00 in
17:34 88.4 °F 65.6 °F 29.95 in SE 0.3 mph   47 % 0.00 in
17:40 88.1 °F 65.3 °F 29.95 in SE 1.9 mph 8.1 mph 47 % 0.00 in
17:45 87.5 °F 66.0 °F 29.95 in Calm   3.5 mph 49 % 0.00 in
17:50 87.1 °F 66.2 °F 29.95 in SSE 1.4 mph 3.5 mph 50 % 0.00 in
17:55 86.5 °F 65.1 °F 29.95 in South 0.6 mph 3.5 mph 49 % 0.00 in
18:00 85.9 °F 64.5 °F 29.96 in SE 3.1 mph 8.1 mph 49 % 0.00 in
18:05 85.2 °F 64.5 °F 29.96 in SSE 0.3 mph 2.3 mph 50 % 0.00 in
18:10 84.7 °F 64.6 °F 29.96 in SE 0.1 mph 3.5 mph 51 % 0.00 in
18:15 84.2 °F 64.7 °F 29.96 in SE 1.6 mph 3.5 mph 52 % 0.00 in
18:20 83.9 °F 65.5 °F 29.96 in South 1.4 mph 3.5 mph 54 % 0.00 in
18:25 83.7 °F 65.3 °F 29.96 in SSE 1.0 mph 2.3 mph 54 % 0.00 in
18:30 83.4 °F 65.5 °F 29.96 in SE 0.9 mph 2.3 mph 55 % 0.00 in
18:35 83.1 °F 65.8 °F 29.96 in SE 0.1 mph 1.2 mph 56 % 0.00 in
18:40 83.0 °F 65.7 °F 29.96 in SSE 1.1 mph 4.6 mph 56 % 0.00 in
18:45 82.7 °F 65.9 °F 29.96 in Calm   1.2 mph 57 % 0.00 in
18:50 82.7 °F 65.9 °F 29.96 in SSE 0.3 mph 2.3 mph 57 % 0.00 in
18:55 82.4 °F 65.6 °F 29.96 in SSE 0.3 mph 1.2 mph 57 % 0.00 in
19:00 82.1 °F 65.4 °F 29.96 in SE 0.8 mph 3.5 mph 57 % 0.00 in
19:05 81.9 °F 65.2 °F 29.96 in SE 0.3 mph 1.2 mph 57 % 0.00 in
19:10 81.8 °F 65.1 °F 29.96 in SE 0.1 mph 1.2 mph 57 % 0.00 in
19:15 81.4 °F 64.7 °F 29.96 in SSE 0.2 mph 1.2 mph 57 % 0.00 in
19:20 81.0 °F 64.8 °F 29.96 in SSE 0.5 mph 2.3 mph 58 % 0.00 in
19:25 80.7 °F 65.0 °F 29.96 in SE 0.2 mph 2.3 mph 59 % 0.00 in
19:30 80.5 °F 65.3 °F 29.96 in SE 0.2 mph 3.5 mph 60 % 0.00 in
19:35 80.2 °F 65.1 °F 29.96 in SE 0.1 mph 2.0 mph 60 % 0.00 in
19:41 79.9 °F 65.2 °F 29.96 in SSE 1.0 mph 4.0 mph 61 % 0.00 in
19:46 79.4 °F 64.8 °F 29.96 in SSW 0.1 mph 1.2 mph 61 % 0.00 in
19:51 79.1 °F 65.4 °F 29.97 in Calm   1.0 mph 63 % 0.00 in
19:56 78.7 °F 65.5 °F 29.96 in Calm   2.0 mph 64 % 0.00 in
20:01 78.2 °F 65.5 °F 29.97 in SSW 1.2 mph 3.5 mph 65 % 0.00 in
20:06 77.9 °F 65.2 °F 29.97 in Calm   5.0 mph 65 % 0.00 in
20:11 77.6 °F 65.8 °F 29.97 in SSE 0.3 mph 2.3 mph 67 % 0.00 in
20:16 77.3 °F 65.9 °F 29.97 in SSE 0.5 mph 2.3 mph 68 % 0.00 in
20:21 77.0 °F 65.6 °F 29.97 in SE 0.3 mph 1.2 mph 68 % 0.00 in
20:26 76.7 °F 65.3 °F 29.97 in SE 0.9 mph 4.6 mph 68 % 0.00 in
20:31 76.5 °F 65.1 °F 29.97 in SE 1.0 mph 4.6 mph 68 % 0.00 in
20:36 76.2 °F 64.9 °F 29.97 in SSE 0.3 mph 2.3 mph 68 % 0.00 in
20:41 76.0 °F 64.7 °F 29.97 in ESE 0.3 mph 3.5 mph 68 % 0.00 in
20:46 75.7 °F 64.8 °F 29.98 in SE 0.3 mph 3.5 mph 69 % 0.00 in
20:51 75.5 °F 64.6 °F 29.98 in SSE 0.5 mph 2.3 mph 69 % 0.00 in
20:56 75.3 °F 64.8 °F 29.98 in SE 0.2 mph 1.2 mph 70 % 0.00 in
21:01 75.2 °F 64.7 °F 29.98 in South 0.5 mph 2.3 mph 70 % 0.00 in
21:06 75.0 °F 64.5 °F 29.98 in SE 0.4 mph 2.3 mph 70 % 0.00 in
21:11 74.9 °F 64.9 °F 29.98 in South 1.1 mph 3.5 mph 71 % 0.00 in
21:16 74.8 °F 64.8 °F 29.98 in Calm   2.3 mph 71 % 0.00 in
21:21 74.7 °F 64.7 °F 29.98 in SSW 1.5 mph 3.5 mph 71 % 0.00 in
21:26 74.5 °F 64.5 °F 29.98 in Calm   1.2 mph 71 % 0.00 in
21:31 74.4 °F 64.4 °F 29.99 in SW 0.2 mph 2.3 mph 71 % 0.00 in
21:36 74.2 °F 64.2 °F 29.99 in SW 0.7 mph 3.5 mph 71 % 0.00 in
21:38 74.2 °F 64.2 °F 29.99 in West 0.8 mph 2.3 mph 71 % 0.00 in
21:43 74.0 °F 63.6 °F 29.99 in Calm   1.2 mph 70 % 0.00 in
21:48 73.9 °F 63.5 °F 29.99 in Calm   3.5 mph 70 % 0.00 in
21:53 73.7 °F 63.3 °F 29.98 in WSW 0.3 mph 1.2 mph 70 % 0.00 in
21:58 73.6 °F 63.2 °F 29.99 in SW 0.9 mph 3.5 mph 70 % 0.00 in
22:03 73.5 °F 63.1 °F 29.98 in SW 1.6 mph 2.0 mph 70 % 0.00 in
22:08 73.4 °F 63.0 °F 29.99 in SW 1.8 mph 3.0 mph 70 % 0.00 in
22:14 73.3 °F 62.9 °F 29.98 in WSW 1.1 mph 2.0 mph 70 % 0.00 in
22:19 73.2 °F 62.8 °F 29.98 in SSW 1.2 mph 2.3 mph 70 % 0.00 in
22:24 73.2 °F 62.8 °F 29.98 in SW 1.2 mph 2.3 mph 70 % 0.00 in
22:29 73.1 °F 62.7 °F 29.98 in Calm     70 % 0.00 in
22:34 73.1 °F 63.1 °F 29.98 in SW 0.2 mph 1.0 mph 71 % 0.00 in
22:39 73.1 °F 63.1 °F 29.98 in Calm   2.3 mph 71 % 0.00 in
22:44 73.2 °F 63.2 °F 29.98 in SW 0.7 mph 1.2 mph 71 % 0.00 in
22:49 73.2 °F 63.6 °F 29.98 in Calm     72 % 0.00 in
22:54 73.2 °F 63.6 °F 29.97 in WSW 0.3 mph 2.0 mph 72 % 0.00 in
22:59 73.2 °F 63.2 °F 29.97 in Calm   1.2 mph 71 % 0.00 in
23:04 73.1 °F 63.1 °F 29.97 in WSW 0.1 mph 3.5 mph 71 % 0.00 in
23:09 73.1 °F 63.5 °F 29.97 in Calm   2.3 mph 72 % 0.00 in
23:14 73.1 °F 63.5 °F 29.97 in WSW 1.0 mph 2.3 mph 72 % 0.00 in
23:19 73.0 °F 63.4 °F 29.97 in Calm   1.2 mph 72 % 0.00 in
23:24 73.0 °F 63.8 °F 29.96 in NW 0.1 mph 3.5 mph 73 % 0.00 in
23:29 72.9 °F 63.7 °F 29.97 in South 0.2 mph 4.6 mph 73 % 0.00 in
23:35 72.8 °F 63.6 °F 29.97 in SW 0.3 mph 3.5 mph 73 % 0.00 in
23:40 72.7 °F 63.5 °F 29.96 in Calm   1.2 mph 73 % 0.00 in
23:45 72.6 °F 63.1 °F 29.97 in Calm   1.2 mph 72 % 0.00 in
23:50 72.6 °F 63.1 °F 29.97 in Calm   1.2 mph 72 % 0.00 in
23:55 72.5 °F 63.0 °F 29.97 in Calm   1.2 mph 72 % 0.00 in
Crab Meadow Weather
Compliments of Weather Underground - 3 mb

Script developed by  Jim McMurry - jmcmurry@mwt.net Adapted for the template by  Wim van der Kuil - Leuven-Template.eu

Extremes: By average annual rainfall, the wettest place in the world is Mawslynram, in Meghalaya State, India with 467 1/2 inches per annum.